Time,TemperatureF,DewpointF,PressureIn,WindDirection,WindDirectionDegrees,WindSpeedMPH,WindSpeedGustMPH,Humidity,HourlyPrecipIn,Conditions,Clouds,dailyrainin,SolarRadiationWatts/m^2,SoftwareType,DateUTC
2013-03-05 00:01:00,29.0,8.0,-100.00,ESE,122,4.0,12.0,40,0.00,,,-99.99,0.000000,,2013-03-05 06:01:00,
2013-03-05 00:22:00,27.0,9.0,-100.00,SE,133,6.0,16.0,47,0.00,,,0.00,0.000000,,2013-03-05 06:22:00,
2013-03-05 00:32:00,27.0,9.0,-100.00,SE,133,6.0,16.0,47,0.00,,,0.00,0.000000,,2013-03-05 06:32:00,
2013-03-05 00:42:00,27.0,9.0,-100.00,SE,133,6.0,16.0,47,0.00,,,0.00,0.000000,,2013-03-05 06:42:00,
2013-03-05 00:52:00,27.0,9.0,-100.00,SE,133,6.0,16.0,47,0.00,,,0.00,0.000000,,2013-03-05 06:52:00,
2013-03-05 01:01:00,27.0,9.0,-100.00,SE,133,6.0,16.0,47,0.00,,,0.00,0.000000,,2013-03-05 07:01:00,
2013-03-05 01:02:00,27.0,11.0,-100.00,ESE,111,2.0,12.0,50,0.00,,,-99.99,0.000000,,2013-03-05 07:02:00,
2013-03-05 01:22:00,27.0,11.0,-100.00,ESE,111,2.0,12.0,50,0.00,,,-99.99,0.000000,,2013-03-05 07:22:00,
2013-03-05 01:32:00,27.0,11.0,-100.00,ESE,111,2.0,12.0,50,0.00,,,-99.99,0.000000,,2013-03-05 07:32:00,
2013-03-05 01:42:00,27.0,11.0,-100.00,ESE,111,2.0,12.0,50,0.00,,,-99.99,0.000000,,2013-03-05 07:42:00,
2013-03-05 01:52:00,27.0,11.0,-100.00,ESE,111,2.0,12.0,50,0.00,,,-99.99,0.000000,,2013-03-05 07:52:00,
2013-03-05 03:32:00,25.0,13.0,-100.00,ESE,104,3.0,10.0,61,-99.99,,,0.00,0.000000,,2013-03-05 09:32:00,
2013-03-05 03:43:00,25.0,13.0,-100.00,ESE,104,3.0,10.0,61,-99.99,,,0.00,0.000000,,2013-03-05 09:43:00,
2013-03-05 03:52:00,25.0,13.0,-100.00,ESE,104,3.0,10.0,61,-99.99,,,0.00,0.000000,,2013-03-05 09:52:00,
2013-03-05 04:01:00,25.0,13.0,-100.00,ESE,104,3.0,10.0,61,-99.99,,,0.00,0.000000,,2013-03-05 10:01:00,
2013-03-05 04:22:00,25.0,12.0,-100.00,East,98,4.0,9.0,58,0.00,,,0.00,0.000000,,2013-03-05 10:22:00,
2013-03-05 04:32:00,25.0,12.0,-100.00,East,98,4.0,9.0,58,0.00,,,0.00,0.000000,,2013-03-05 10:32:00,
2013-03-05 04:42:00,25.0,12.0,-100.00,East,98,4.0,9.0,58,0.00,,,0.00,0.000000,,2013-03-05 10:42:00,
2013-03-05 04:52:00,25.0,12.0,-100.00,East,98,4.0,9.0,58,0.00,,,0.00,0.000000,,2013-03-05 10:52:00,
2013-03-05 05:01:00,25.0,12.0,-100.00,East,98,4.0,9.0,58,0.00,,,0.00,0.000000,,2013-03-05 11:01:00,
2013-03-05 05:02:00,24.0,10.0,-100.00,East,96,4.0,11.0,55,0.00,,,0.00,0.000000,,2013-03-05 11:02:00,
2013-03-05 05:22:00,24.0,10.0,-100.00,East,96,4.0,11.0,55,0.00,,,0.00,0.000000,,2013-03-05 11:22:00,
2013-03-05 05:32:00,24.0,10.0,-100.00,East,96,4.0,11.0,55,0.00,,,0.00,0.000000,,2013-03-05 11:32:00,
2013-03-05 05:42:00,24.0,10.0,-100.00,East,96,4.0,11.0,55,0.00,,,0.00,0.000000,,2013-03-05 11:42:00,
2013-03-05 05:52:00,24.0,10.0,-100.00,East,96,4.0,11.0,55,0.00,,,0.00,0.000000,,2013-03-05 11:52:00,
2013-03-05 06:02:00,22.0,6.0,-100.00,ESE,108,5.0,10.0,50,0.00,,,0.00,0.000000,,2013-03-05 12:02:00,
2013-03-05 06:32:00,22.0,6.0,-100.00,ESE,108,5.0,10.0,50,0.00,,,0.00,0.000000,,2013-03-05 12:32:00,
2013-03-05 06:42:00,22.0,6.0,-100.00,ESE,108,5.0,10.0,50,0.00,,,0.00,0.000000,,2013-03-05 12:42:00,
2013-03-05 06:52:00,22.0,6.0,-100.00,ESE,108,5.0,10.0,50,0.00,,,0.00,0.000000,,2013-03-05 12:52:00,
2013-03-05 07:02:00,22.0,8.0,-100.00,ESE,105,2.0,7.0,53,0.00,,,0.00,2.000000,,2013-03-05 13:02:00,
2013-03-05 07:32:00,22.0,8.0,-100.00,ESE,105,2.0,7.0,53,0.00,,,0.00,2.000000,,2013-03-05 13:32:00,
2013-03-05 07:42:00,22.0,8.0,-100.00,ESE,105,2.0,7.0,53,0.00,,,0.00,2.000000,,2013-03-05 13:42:00,
2013-03-05 07:52:00,22.0,8.0,-100.00,ESE,105,2.0,7.0,53,0.00,,,0.00,2.000000,,2013-03-05 13:52:00,
2013-03-05 08:32:00,23.0,10.0,-100.00,NE,49,2.0,7.0,56,0.00,,,0.00,27.000000,,2013-03-05 14:32:00,
2013-03-05 08:42:00,23.0,10.0,-100.00,NE,49,2.0,7.0,56,0.00,,,0.00,27.000000,,2013-03-05 14:42:00,
2013-03-05 08:52:00,23.0,10.0,-100.00,NE,49,2.0,7.0,56,0.00,,,0.00,27.000000,,2013-03-05 14:52:00,
2013-03-05 09:01:00,23.0,10.0,-100.00,NE,49,2.0,7.0,56,0.00,,,0.00,27.000000,,2013-03-05 15:01:00,
2013-03-05 09:32:00,24.0,10.0,-100.00,ENE,59,4.0,7.0,55,0.00,,,0.00,91.000000,,2013-03-05 15:32:00,
2013-03-05 09:42:00,24.0,10.0,-100.00,ENE,59,4.0,7.0,55,0.00,,,0.00,91.000000,,2013-03-05 15:42:00,
2013-03-05 09:52:00,24.0,10.0,-100.00,ENE,59,4.0,7.0,55,0.00,,,0.00,91.000000,,2013-03-05 15:52:00,
2013-03-05 10:01:00,24.0,10.0,-100.00,ENE,59,4.0,7.0,55,0.00,,,0.00,91.000000,,2013-03-05 16:01:00,
2013-03-05 10:32:00,26.0,11.0,-100.00,NE,40,4.0,9.0,52,0.00,,,0.00,164.000000,,2013-03-05 16:32:00,
2013-03-05 10:42:00,26.0,11.0,-100.00,NE,40,4.0,9.0,52,0.00,,,0.00,164.000000,,2013-03-05 16:42:00,
2013-03-05 10:52:00,26.0,11.0,-100.00,NE,40,4.0,9.0,52,0.00,,,0.00,164.000000,,2013-03-05 16:52:00,
2013-03-05 11:01:00,26.0,11.0,-100.00,NE,40,4.0,9.0,52,0.00,,,0.00,164.000000,,2013-03-05 17:01:00,
2013-03-05 11:32:00,28.0,13.0,-100.00,NNE,23,4.0,10.0,53,0.00,,,0.00,243.000000,,2013-03-05 17:32:00,
2013-03-05 11:42:00,28.0,13.0,-100.00,NNE,23,4.0,10.0,53,0.00,,,0.00,243.000000,,2013-03-05 17:42:00,
2013-03-05 11:52:00,28.0,13.0,-100.00,NNE,23,4.0,10.0,53,0.00,,,0.00,243.000000,,2013-03-05 17:52:00,
2013-03-05 12:01:00,28.0,13.0,-100.00,NNE,23,4.0,10.0,53,0.00,,,0.00,243.000000,,2013-03-05 18:01:00,
2013-03-05 12:32:00,29.0,14.0,-100.00,NNE,31,5.0,12.0,53,0.00,,,0.00,303.000000,,2013-03-05 18:32:00,
2013-03-05 12:42:00,29.0,14.0,-100.00,NNE,31,5.0,12.0,53,0.00,,,0.00,303.000000,,2013-03-05 18:42:00,
2013-03-05 12:53:00,29.0,14.0,-100.00,NNE,31,5.0,12.0,53,0.00,,,0.00,303.000000,,2013-03-05 18:53:00,
2013-03-05 13:01:00,29.0,14.0,-100.00,NNE,31,5.0,12.0,53,0.00,,,0.00,303.000000,,2013-03-05 19:01:00,
2013-03-05 13:32:00,28.0,15.0,-100.00,NNE,23,7.0,14.0,57,0.00,,,0.00,259.000000,,2013-03-05 19:32:00,
2013-03-05 13:42:00,28.0,15.0,-100.00,NNE,23,7.0,14.0,57,0.00,,,0.00,259.000000,,2013-03-05 19:42:00,
2013-03-05 13:52:00,28.0,15.0,-100.00,NNE,23,7.0,14.0,57,0.00,,,0.00,259.000000,,2013-03-05 19:52:00,
2013-03-05 14:01:00,28.0,15.0,-100.00,NNE,23,7.0,14.0,57,0.00,,,0.00,259.000000,,2013-03-05 20:01:00,
2013-03-05 14:02:00,27.0,15.0,-100.00,NNE,31,6.0,16.0,61,0.00,,,0.00,207.000000,,2013-03-05 20:02:00,
2013-03-05 14:22:00,27.0,15.0,-100.00,NNE,31,6.0,16.0,61,0.00,,,0.00,207.000000,,2013-03-05 20:22:00,
2013-03-05 14:32:00,27.0,15.0,-100.00,NNE,31,6.0,16.0,61,0.00,,,0.00,207.000000,,2013-03-05 20:32:00,
2013-03-05 14:42:00,27.0,15.0,-100.00,NNE,31,6.0,16.0,61,0.00,,,0.00,207.000000,,2013-03-05 20:42:00,
2013-03-05 14:52:00,27.0,15.0,-100.00,NNE,31,6.0,16.0,61,0.00,,,0.00,207.000000,,2013-03-05 20:52:00,
2013-03-05 15:32:00,25.0,18.0,-100.00,NNE,23,5.0,14.0,74,0.00,,,0.00,130.000000,,2013-03-05 21:32:00,
2013-03-05 15:42:00,25.0,18.0,-100.00,NNE,23,5.0,14.0,74,0.00,,,0.00,130.000000,,2013-03-05 21:42:00,
2013-03-05 15:52:00,25.0,18.0,-100.00,NNE,23,5.0,14.0,74,0.00,,,0.00,130.000000,,2013-03-05 21:52:00,
2013-03-05 16:01:00,25.0,18.0,-100.00,NNE,23,5.0,14.0,74,0.00,,,0.00,130.000000,,2013-03-05 22:01:00,
2013-03-05 16:32:00,23.0,19.0,-100.00,NNE,27,7.0,16.0,83,0.00,,,0.00,72.000000,,2013-03-05 22:32:00,
2013-03-05 16:42:00,23.0,19.0,-100.00,NNE,27,7.0,16.0,83,0.00,,,0.00,72.000000,,2013-03-05 22:42:00,
2013-03-05 16:52:00,23.0,19.0,-100.00,NNE,27,7.0,16.0,83,0.00,,,0.00,72.000000,,2013-03-05 22:52:00,
2013-03-05 17:01:00,23.0,19.0,-100.00,NNE,27,7.0,16.0,83,0.00,,,0.00,72.000000,,2013-03-05 23:01:00,
2013-03-05 17:32:00,22.0,19.0,-100.00,North,5,5.0,15.0,87,0.00,,,0.00,31.000000,,2013-03-05 23:32:00,
2013-03-05 17:42:00,22.0,19.0,-100.00,North,5,5.0,15.0,87,0.00,,,0.00,31.000000,,2013-03-05 23:42:00,
2013-03-05 17:53:00,22.0,19.0,-100.00,North,5,5.0,15.0,87,0.00,,,0.00,31.000000,,2013-03-05 23:53:00,
2013-03-05 18:01:00,22.0,19.0,-100.00,North,5,5.0,15.0,87,0.00,,,0.00,31.000000,,2013-03-06 00:01:00,
2013-03-05 18:02:00,21.0,19.0,-100.00,NNE,14,6.0,14.0,90,0.00,,,0.00,6.000000,,2013-03-06 00:02:00,
2013-03-05 18:22:00,21.0,19.0,-100.00,NNE,14,6.0,14.0,90,0.00,,,0.00,6.000000,,2013-03-06 00:22:00,
2013-03-05 18:32:00,21.0,19.0,-100.00,NNE,14,6.0,14.0,90,0.00,,,0.00,6.000000,,2013-03-06 00:32:00,
2013-03-05 18:42:00,21.0,19.0,-100.00,NNE,14,6.0,14.0,90,0.00,,,0.00,6.000000,,2013-03-06 00:42:00,
2013-03-05 18:52:00,21.0,19.0,-100.00,NNE,14,6.0,14.0,90,0.00,,,0.00,6.000000,,2013-03-06 00:52:00,
2013-03-05 19:32:00,20.0,17.0,-100.00,North,11,5.0,13.0,89,0.00,,,0.00,0.000000,,2013-03-06 01:32:00,
2013-03-05 19:42:00,20.0,17.0,-100.00,North,11,5.0,13.0,89,0.00,,,0.00,0.000000,,2013-03-06 01:42:00,
2013-03-05 19:52:00,20.0,17.0,-100.00,North,11,5.0,13.0,89,0.00,,,0.00,0.000000,,2013-03-06 01:52:00,
2013-03-05 20:01:00,20.0,17.0,-100.00,North,11,5.0,13.0,89,0.00,,,0.00,0.000000,,2013-03-06 02:01:00,
2013-03-05 20:22:00,20.0,17.0,-100.00,North,359,3.0,19.0,88,0.00,,,0.00,0.000000,,2013-03-06 02:22:00,
2013-03-05 20:32:00,20.0,17.0,-100.00,North,359,3.0,19.0,88,0.00,,,0.00,0.000000,,2013-03-06 02:32:00,
2013-03-05 20:42:00,20.0,17.0,-100.00,North,359,3.0,19.0,88,0.00,,,0.00,0.000000,,2013-03-06 02:42:00,
2013-03-05 20:52:00,20.0,17.0,-100.00,North,359,3.0,19.0,88,0.00,,,0.00,0.000000,,2013-03-06 02:52:00,
2013-03-05 21:01:00,20.0,17.0,-100.00,North,359,3.0,19.0,88,0.00,,,0.00,0.000000,,2013-03-06 03:01:00,
2013-03-05 21:02:00,20.0,17.0,-100.00,North,356,3.0,10.0,88,0.00,,,0.00,0.000000,,2013-03-06 03:02:00,
2013-03-05 21:22:00,20.0,17.0,-100.00,North,356,3.0,10.0,88,0.00,,,0.00,0.000000,,2013-03-06 03:22:00,
2013-03-05 21:32:00,20.0,17.0,-100.00,North,356,3.0,10.0,88,0.00,,,0.00,0.000000,,2013-03-06 03:32:00,
2013-03-05 21:42:00,20.0,17.0,-100.00,North,356,3.0,10.0,88,0.00,,,0.00,0.000000,,2013-03-06 03:42:00,
2013-03-05 21:52:00,20.0,17.0,-100.00,North,356,3.0,10.0,88,0.00,,,0.00,0.000000,,2013-03-06 03:52:00,
2013-03-05 22:32:00,20.0,16.0,-100.00,NW,326,4.0,9.0,86,0.00,,,0.00,0.000000,,2013-03-06 04:32:00,
2013-03-05 22:42:00,20.0,16.0,-100.00,NW,326,4.0,9.0,86,0.00,,,0.00,0.000000,,2013-03-06 04:42:00,
2013-03-05 22:52:00,20.0,16.0,-100.00,NW,326,4.0,9.0,86,0.00,,,0.00,0.000000,,2013-03-06 04:52:00,
2013-03-05 23:01:00,20.0,16.0,-100.00,NW,326,4.0,9.0,86,0.00,,,0.00,0.000000,,2013-03-06 05:01:00,
2013-03-05 23:02:00,19.0,15.0,-100.00,NNW,338,4.0,10.0,85,0.00,,,0.00,0.000000,,2013-03-06 05:02:00,
2013-03-05 23:32:00,19.0,15.0,-100.00,NNW,338,4.0,10.0,85,0.00,,,0.00,0.000000,,2013-03-06 05:32:00,
2013-03-05 23:42:00,19.0,15.0,-100.00,NNW,338,4.0,10.0,85,0.00,,,0.00,0.000000,,2013-03-06 05:42:00,
2013-03-05 23:52:00,19.0,15.0,-100.00,NNW,338,4.0,10.0,85,0.00,,,0.00,0.000000,,2013-03-06 05:52:00,